UAL667 KIAD-KLAX

Flight info

Callsign UAL667
Flight time 5h 8m
Altitude 38000
Route CLTCH3 MAULS Q40 BFOLO FIBER HRISN Q30 IZAAC ELD MULQN FDRER EWM/N0479F400 J4 WLVRN ESTWD HLYWD1
Aircraft B77L/H-SDE1E2E3FGHIJ2J3J4J5M1RWXY/LB1D1

Departure

Time 2026-04-21 14:42
Airport Washington Dulles International Airport (KIAD)

Arrival

Time 2026-04-21 19:50
Airport Los Angeles International Airport (KLAX)
Time Latitude Longitude Altitude Speed Heading
2026-04-21 13:58 38.94492 -77.44141 326 ft 0 kts 23°
2026-04-21 14:27 38.94489 -77.44143 326 ft 2 kts 23°
2026-04-21 14:28 38.94471 -77.44152 326 ft 3 kts 19°
2026-04-21 14:28 38.94452 -77.44160 326 ft 3 kts 20°
2026-04-21 14:28 38.94435 -77.44169 326 ft 3 kts 31°
2026-04-21 14:28 38.94421 -77.44182 326 ft 3 kts 56°
2026-04-21 14:29 38.94414 -77.44203 326 ft 3 kts 81°
2026-04-21 14:29 38.94412 -77.44225 326 ft 2 kts 91°
2026-04-21 14:29 38.94412 -77.44228 326 ft 0 kts 91°
2026-04-21 14:32 38.94412 -77.44221 326 ft 3 kts 91°
2026-04-21 14:32 38.94411 -77.44196 326 ft 3 kts 91°
2026-04-21 14:32 38.94411 -77.44174 326 ft 2 kts 91°
2026-04-21 14:33 38.94411 -77.44161 326 ft 2 kts 91°
2026-04-21 14:33 38.94410 -77.44140 326 ft 2 kts 91°
2026-04-21 14:33 38.94410 -77.44132 326 ft 1 kts 91°
2026-04-21 14:33 38.94410 -77.44121 326 ft 1 kts 91°
2026-04-21 14:34 38.94410 -77.44094 326 ft 5 kts 91°
2026-04-21 14:34 38.94395 -77.43998 326 ft 9 kts 128°
2026-04-21 14:34 38.94356 -77.43977 326 ft 10 kts 172°
2026-04-21 14:34 38.94270 -77.43971 326 ft 15 kts 178°
2026-04-21 14:35 38.94189 -77.43971 326 ft 3 kts 183°
2026-04-21 14:35 38.94151 -77.43984 326 ft 7 kts 223°
2026-04-21 14:35 38.94121 -77.44053 326 ft 12 kts 251°
2026-04-21 14:35 38.94109 -77.44183 326 ft 18 kts 269°
2026-04-21 14:36 38.94110 -77.44361 326 ft 21 kts 271°
2026-04-21 14:36 38.94112 -77.44538 326 ft 19 kts 270°
2026-04-21 14:36 38.94114 -77.44707 326 ft 18 kts 270°
2026-04-21 14:36 38.94115 -77.44867 326 ft 17 kts 270°
2026-04-21 14:37 38.94117 -77.45020 326 ft 17 kts 271°
2026-04-21 14:37 38.94118 -77.45163 326 ft 16 kts 270°
2026-04-21 14:37 38.94120 -77.45305 326 ft 17 kts 270°
2026-04-21 14:37 38.94121 -77.45479 326 ft 22 kts 271°
2026-04-21 14:38 38.94122 -77.45627 326 ft 10 kts 270°
2026-04-21 14:38 38.94087 -77.45717 326 ft 12 kts 201°
2026-04-21 14:38 38.93994 -77.45734 326 ft 16 kts 182°
2026-04-21 14:38 38.93865 -77.45736 326 ft 21 kts 180°
2026-04-21 14:39 38.93741 -77.45744 326 ft 20 kts 192°
2026-04-21 14:39 38.93640 -77.45770 326 ft 17 kts 146°
2026-04-21 14:39 38.93548 -77.45707 326 ft 17 kts 206°
2026-04-21 14:39 38.93514 -77.45725 326 ft 6 kts 200°
2026-04-21 14:40 38.93461 -77.45768 326 ft 11 kts 249°
2026-04-21 14:40 38.93452 -77.45878 326 ft 13 kts 284°
2026-04-21 14:40 38.93455 -77.45889 326 ft 0 kts 284°
2026-04-21 14:41 38.93474 -77.45973 326 ft 31 kts 289°
2026-04-21 14:41 38.93628 -77.46496 326 ft 93 kts 291°
2026-04-21 14:41 38.93925 -77.47506 326 ft 148 kts 291°
2026-04-21 14:42 38.94329 -77.48851 645 ft 163 kts 291°
2026-04-21 14:42 38.94670 -77.50145 1514 ft 150 kts 279°
2026-04-21 14:42 38.94455 -77.51506 1866 ft 168 kts 246°
2026-04-21 14:42 38.93586 -77.52508 2244 ft 169 kts 218°
2026-04-21 14:43 38.92497 -77.53171 2461 ft 179 kts 207°
2026-04-21 14:43 38.91281 -77.53753 2632 ft 194 kts 201°
2026-04-21 14:43 38.89946 -77.54335 2749 ft 212 kts 200°
2026-04-21 14:43 38.88498 -77.55003 2884 ft 230 kts 201°
2026-04-21 14:44 38.86965 -77.55778 3166 ft 243 kts 202°
2026-04-21 14:44 38.85385 -77.56648 3595 ft 250 kts 204°
2026-04-21 14:44 38.83800 -77.57588 4150 ft 252 kts 205°
2026-04-21 14:44 38.82236 -77.58570 4793 ft 250 kts 206°
2026-04-21 14:45 38.80659 -77.59546 5302 ft 254 kts 206°
2026-04-21 14:45 38.79057 -77.60546 5804 ft 258 kts 208°
2026-04-21 14:45 38.77432 -77.61595 6219 ft 265 kts 210°
2026-04-21 14:45 38.75780 -77.62710 6646 ft 271 kts 212°
2026-04-21 14:46 38.74141 -77.63873 7172 ft 274 kts 213°
2026-04-21 14:46 38.72460 -77.65090 7751 ft 274 kts 213°
2026-04-21 14:46 38.70809 -77.66288 8235 ft 278 kts 214°
2026-04-21 14:46 38.69106 -77.67526 8688 ft 283 kts 214°
2026-04-21 14:47 38.67384 -77.68781 9199 ft 287 kts 214°
2026-04-21 14:47 38.65636 -77.70053 9702 ft 291 kts 214°
2026-04-21 14:47 38.63865 -77.71341 10215 ft 296 kts 214°
2026-04-21 14:47 38.62001 -77.72692 10487 ft 312 kts 214°
2026-04-21 14:48 38.60092 -77.74076 10766 ft 328 kts 214°
2026-04-21 14:48 38.58055 -77.75554 10998 ft 347 kts 214°
2026-04-21 14:48 38.55913 -77.77142 11272 ft 362 kts 217°
2026-04-21 14:48 38.53796 -77.78987 11621 ft 377 kts 218°
2026-04-21 14:49 38.51605 -77.80906 12148 ft 384 kts 223°
2026-04-21 14:49 38.49682 -77.83247 12957 ft 382 kts 233°
2026-04-21 14:49 38.48002 -77.85885 13667 ft 385 kts 236°
2026-04-21 14:49 38.46247 -77.88510 14352 ft 392 kts 234°
2026-04-21 14:50 38.45049 -77.90239 14770 ft 393 kts 235°
2026-04-21 14:50 38.42772 -77.93898 15017 ft 393 kts 239°
2026-04-21 14:50 38.41181 -77.96727 15015 ft 392 kts 241°
2026-04-21 14:50 38.39630 -77.99607 15524 ft 395 kts 242°
2026-04-21 14:51 38.38069 -78.02515 16234 ft 399 kts 242°
2026-04-21 14:51 38.36478 -78.05442 16881 ft 404 kts 242°
2026-04-21 14:51 38.34877 -78.08392 17573 ft 406 kts 242°
2026-04-21 14:51 38.33277 -78.11319 18205 ft 410 kts 242°
2026-04-21 14:52 38.31628 -78.14298 18805 ft 414 kts 242°
2026-04-21 14:52 38.29933 -78.17338 19389 ft 417 kts 242°
2026-04-21 14:52 38.28265 -78.20321 19940 ft 421 kts 242°
2026-04-21 14:52 38.26558 -78.23369 20477 ft 425 kts 242°
2026-04-21 14:53 38.24838 -78.26439 21013 ft 428 kts 242°
2026-04-21 14:53 38.23097 -78.29542 21527 ft 431 kts 242°
2026-04-21 14:53 38.21349 -78.32656 22038 ft 435 kts 242°
2026-04-21 14:53 38.19598 -78.35804 22539 ft 436 kts 243°
2026-04-21 14:54 38.18064 -78.39110 23007 ft 434 kts 249°
2026-04-21 14:54 38.16740 -78.42565 23487 ft 434 kts 252°
2026-04-21 14:54 38.15514 -78.46078 23998 ft 435 kts 254°
2026-04-21 14:54 38.14369 -78.49604 24455 ft 437 kts 255°
2026-04-21 14:55 38.13244 -78.53198 24946 ft 438 kts 255°
2026-04-21 14:55 38.12117 -78.56807 25388 ft 441 kts 255°
2026-04-21 14:55 38.10980 -78.60434 25862 ft 442 kts 255°
2026-04-21 14:55 38.09835 -78.64075 26257 ft 445 kts 255°
2026-04-21 14:56 38.08682 -78.67736 26687 ft 447 kts 255°
2026-04-21 14:56 38.07525 -78.71401 27060 ft 449 kts 255°
2026-04-21 14:56 38.06358 -78.75092 27438 ft 451 kts 255°
2026-04-21 14:56 38.05525 -78.77725 27696 ft 452 kts 255°
2026-04-21 14:57 38.04358 -78.81436 28042 ft 454 kts 256°
2026-04-21 14:57 38.03208 -78.85160 28410 ft 455 kts 256°
2026-04-21 14:57 38.02040 -78.88904 28693 ft 457 kts 255°
2026-04-21 14:57 38.00872 -78.92623 28981 ft 459 kts 255°
2026-04-21 14:58 37.99688 -78.96388 29268 ft 460 kts 256°
2026-04-21 14:58 37.98510 -79.00181 29536 ft 462 kts 255°
2026-04-21 14:58 37.97314 -79.03972 29779 ft 464 kts 255°
2026-04-21 14:58 37.96104 -79.07765 30034 ft 466 kts 255°
2026-04-21 14:59 37.94883 -79.11578 30295 ft 466 kts 255°
2026-04-21 14:59 37.93664 -79.15376 30632 ft 465 kts 255°
2026-04-21 14:59 37.92446 -79.19168 30978 ft 464 kts 255°
2026-04-21 14:59 37.91233 -79.22944 31343 ft 461 kts 255°
2026-04-21 15:00 37.90021 -79.26711 31624 ft 461 kts 255°
2026-04-21 15:00 37.88795 -79.30461 31904 ft 463 kts 253°
2026-04-21 15:00 37.87367 -79.34128 32209 ft 466 kts 249°
2026-04-21 15:00 37.85764 -79.37704 32517 ft 468 kts 247°
2026-04-21 15:01 37.84048 -79.41212 32802 ft 469 kts 245°
2026-04-21 15:01 37.82288 -79.44622 33097 ft 469 kts 244°
2026-04-21 15:01 37.80481 -79.48043 33406 ft 468 kts 244°
2026-04-21 15:01 37.78684 -79.51475 33641 ft 468 kts 244°
2026-04-21 15:02 37.76907 -79.54908 33895 ft 467 kts 245°
2026-04-21 15:02 37.75138 -79.58348 34161 ft 466 kts 245°
2026-04-21 15:02 37.73371 -79.61794 34382 ft 466 kts 245°
2026-04-21 15:02 37.71606 -79.65240 34658 ft 465 kts 245°
2026-04-21 15:03 37.69853 -79.68663 34903 ft 464 kts 245°
2026-04-21 15:03 37.68113 -79.72097 35110 ft 464 kts 245°
2026-04-21 15:03 37.66381 -79.75537 35320 ft 464 kts 245°
2026-04-21 15:03 37.64642 -79.78971 35575 ft 463 kts 245°
2026-04-21 15:04 37.62902 -79.82389 35793 ft 463 kts 245°
2026-04-21 15:04 37.61156 -79.85806 35977 ft 463 kts 245°
2026-04-21 15:04 37.59428 -79.89184 36177 ft 463 kts 244°
2026-04-21 15:04 37.57679 -79.92597 36423 ft 462 kts 244°
2026-04-21 15:05 37.55935 -79.95994 36589 ft 462 kts 244°
2026-04-21 15:05 37.52441 -80.02788 36995 ft 461 kts 244°
2026-04-21 15:05 37.50700 -80.06170 37167 ft 461 kts 244°
2026-04-21 15:06 37.48954 -80.09559 37308 ft 461 kts 244°
2026-04-21 15:06 37.47205 -80.12945 37535 ft 459 kts 244°
2026-04-21 15:06 37.45759 -80.15746 37696 ft 459 kts 244°
2026-04-21 15:06 37.44005 -80.19167 37807 ft 459 kts 244°
2026-04-21 15:07 37.42271 -80.22553 37956 ft 460 kts 244°
2026-04-21 15:07 37.40531 -80.25917 38156 ft 458 kts 244°
2026-04-21 15:07 37.38789 -80.29270 38356 ft 457 kts 244°
2026-04-21 15:07 37.37049 -80.32611 38459 ft 457 kts 244°
2026-04-21 15:08 37.33557 -80.39304 38476 ft 458 kts 244°
2026-04-21 15:08 37.30062 -80.45994 38476 ft 458 kts 244°
2026-04-21 15:09 37.26582 -80.52683 38474 ft 457 kts 245°
2026-04-21 15:09 37.23297 -80.59495 38467 ft 455 kts 246°
2026-04-21 15:10 37.20079 -80.66261 38457 ft 454 kts 246°
2026-04-21 15:10 37.16810 -80.73050 38451 ft 453 kts 246°
2026-04-21 15:11 37.13538 -80.79810 38450 ft 453 kts 246°
2026-04-21 15:11 37.10258 -80.86572 38445 ft 454 kts 246°
2026-04-21 15:12 37.07011 -80.93345 38440 ft 453 kts 246°
2026-04-21 15:12 37.03755 -81.00090 38438 ft 452 kts 246°
2026-04-21 15:13 37.00496 -81.06816 38439 ft 452 kts 246°
2026-04-21 15:13 36.97243 -81.13547 38441 ft 452 kts 246°
2026-04-21 15:14 36.93960 -81.20254 38444 ft 452 kts 246°
2026-04-21 15:14 36.90671 -81.26949 38447 ft 452 kts 246°
2026-04-21 15:15 36.87381 -81.33637 38450 ft 451 kts 246°
2026-04-21 15:15 36.84095 -81.40315 38450 ft 451 kts 246°
2026-04-21 15:16 36.80843 -81.46953 38446 ft 451 kts 246°
2026-04-21 15:16 36.77553 -81.53605 38441 ft 449 kts 245°
2026-04-21 15:17 36.74275 -81.60226 38437 ft 448 kts 245°
2026-04-21 15:17 36.71514 -81.65753 38434 ft 448 kts 245°
2026-04-21 15:18 36.68131 -81.72301 38431 ft 449 kts 244°
2026-04-21 15:18 36.64763 -81.78812 38428 ft 450 kts 244°
2026-04-21 15:19 36.61375 -81.85361 38422 ft 449 kts 244°
2026-04-21 15:19 36.57993 -81.91892 38420 ft 449 kts 244°
2026-04-21 15:20 36.54609 -81.98417 38420 ft 449 kts 245°
2026-04-21 15:20 36.51259 -82.04973 38421 ft 448 kts 245°
2026-04-21 15:21 36.47902 -82.11492 38421 ft 447 kts 245°
2026-04-21 15:21 36.44531 -82.17998 38422 ft 448 kts 244°
2026-04-21 15:22 36.41172 -82.24460 38422 ft 448 kts 244°
2026-04-21 15:22 36.37762 -82.31005 38423 ft 448 kts 244°
2026-04-21 15:23 36.34365 -82.37510 38425 ft 448 kts 244°
2026-04-21 15:23 36.30990 -82.43963 38426 ft 448 kts 244°
2026-04-21 15:24 36.27598 -82.50435 38423 ft 447 kts 244°
2026-04-21 15:24 36.24202 -82.56905 38421 ft 447 kts 244°
2026-04-21 15:25 36.20799 -82.63371 38417 ft 447 kts 244°
2026-04-21 15:25 36.17403 -82.69814 38411 ft 447 kts 244°
2026-04-21 15:26 36.14002 -82.76255 38406 ft 447 kts 244°
2026-04-21 15:26 36.10598 -82.82690 38405 ft 447 kts 244°
2026-04-21 15:27 36.07212 -82.89130 38397 ft 447 kts 244°
2026-04-21 15:27 36.03805 -82.95557 38380 ft 447 kts 244°
2026-04-21 15:28 36.00383 -83.01970 38356 ft 447 kts 243°
2026-04-21 15:28 35.96976 -83.08343 38328 ft 446 kts 243°
2026-04-21 15:29 35.93552 -83.14738 38290 ft 447 kts 243°
2026-04-21 15:29 35.90163 -83.21163 38238 ft 445 kts 245°
2026-04-21 15:30 35.87004 -83.27719 38180 ft 445 kts 246°
2026-04-21 15:30 35.83809 -83.34251 38096 ft 445 kts 245°
2026-04-21 15:31 35.80580 -83.40760 38033 ft 444 kts 245°
2026-04-21 15:31 35.77357 -83.47245 38003 ft 444 kts 245°
2026-04-21 15:32 35.74155 -83.53684 38006 ft 444 kts 245°
2026-04-21 15:32 35.70817 -83.60104 38064 ft 446 kts 243°
2026-04-21 15:33 35.67326 -83.66422 38136 ft 446 kts 243°
2026-04-21 15:33 35.63850 -83.72748 38220 ft 446 kts 243°
2026-04-21 15:34 35.60377 -83.79094 38280 ft 446 kts 243°
2026-04-21 15:34 35.56908 -83.85436 38316 ft 446 kts 243°
2026-04-21 15:35 35.53483 -83.91727 38378 ft 445 kts 243°
2026-04-21 15:35 35.50054 -83.98076 38427 ft 446 kts 243°
2026-04-21 15:36 35.46604 -84.04412 38430 ft 445 kts 243°
2026-04-21 15:36 35.43135 -84.10755 38432 ft 444 kts 243°
2026-04-21 15:37 35.39710 -84.17001 38433 ft 444 kts 243°
2026-04-21 15:37 35.36259 -84.23282 38427 ft 445 kts 243°
2026-04-21 15:38 35.32797 -84.29570 38426 ft 445 kts 243°
2026-04-21 15:38 35.29331 -84.35852 38431 ft 446 kts 242°
2026-04-21 15:39 35.25855 -84.42142 38437 ft 446 kts 242°
2026-04-21 15:39 35.22379 -84.48425 38437 ft 446 kts 242°
2026-04-21 15:40 35.18896 -84.54703 38443 ft 445 kts 242°
2026-04-21 15:40 35.15413 -84.60972 38429 ft 445 kts 242°
2026-04-21 15:41 35.11928 -84.67233 38422 ft 445 kts 242°
2026-04-21 15:41 35.08442 -84.73486 38420 ft 446 kts 242°
2026-04-21 15:42 35.04946 -84.79745 38421 ft 445 kts 242°
2026-04-21 15:42 35.01476 -84.85946 38422 ft 445 kts 242°
2026-04-21 15:43 34.97983 -84.92179 38426 ft 445 kts 242°
2026-04-21 15:43 34.94477 -84.98469 38429 ft 446 kts 242°
2026-04-21 15:44 34.90977 -85.04704 38430 ft 445 kts 242°
2026-04-21 15:44 34.87466 -85.10918 38430 ft 445 kts 242°
2026-04-21 15:45 34.83949 -85.17129 38431 ft 445 kts 242°
2026-04-21 15:45 34.80432 -85.23336 38431 ft 445 kts 242°
2026-04-21 15:46 34.76915 -85.29540 38430 ft 445 kts 242°
2026-04-21 15:46 34.73387 -85.35726 38426 ft 445 kts 241°
2026-04-21 15:47 34.69849 -85.41916 38425 ft 446 kts 241°
2026-04-21 15:47 34.66309 -85.48099 38425 ft 446 kts 241°
2026-04-21 15:48 34.62764 -85.54281 38424 ft 445 kts 241°
2026-04-21 15:48 34.59223 -85.60447 38424 ft 445 kts 241°
2026-04-21 15:49 34.55704 -85.66641 38422 ft 445 kts 241°
2026-04-21 15:49 34.52202 -85.72778 38421 ft 445 kts 241°
2026-04-21 15:50 34.48665 -85.78940 38420 ft 445 kts 241°
2026-04-21 15:50 34.45122 -85.85094 38421 ft 446 kts 241°
2026-04-21 15:51 34.41568 -85.91254 38421 ft 446 kts 241°
2026-04-21 15:51 34.38009 -85.97412 38423 ft 446 kts 241°
2026-04-21 15:52 34.34451 -86.03557 38416 ft 446 kts 241°
2026-04-21 15:52 34.30890 -86.09697 38417 ft 445 kts 240°
2026-04-21 15:53 34.27328 -86.15828 38418 ft 446 kts 240°
2026-04-21 15:53 34.23767 -86.21963 38420 ft 446 kts 241°
2026-04-21 15:54 34.20215 -86.28098 38420 ft 446 kts 240°
2026-04-21 15:54 34.16661 -86.34175 38421 ft 445 kts 240°
2026-04-21 15:55 34.13078 -86.40279 38421 ft 445 kts 240°
2026-04-21 15:55 34.09497 -86.46376 38420 ft 445 kts 240°
2026-04-21 15:56 34.05918 -86.52467 38419 ft 445 kts 240°
2026-04-21 15:56 34.02416 -86.58614 38419 ft 444 kts 242°
2026-04-21 15:57 33.99529 -86.63738 38418 ft 444 kts 241°
2026-04-21 15:57 33.95486 -86.70876 38417 ft 443 kts 241°
2026-04-21 15:58 33.92566 -86.76014 38418 ft 443 kts 241°
2026-04-21 15:58 33.89083 -86.82135 38416 ft 443 kts 241°
2026-04-21 15:59 33.85602 -86.88264 38415 ft 443 kts 241°
2026-04-21 15:59 33.82164 -86.94356 38414 ft 442 kts 241°
2026-04-21 16:00 33.78708 -87.00479 38413 ft 442 kts 241°
2026-04-21 16:00 33.75231 -87.06572 38413 ft 442 kts 241°
2026-04-21 16:01 33.71741 -87.12653 38412 ft 442 kts 240°
2026-04-21 16:01 33.68247 -87.18731 38412 ft 441 kts 240°
2026-04-21 16:02 33.64758 -87.24800 38410 ft 441 kts 242°
2026-04-21 16:02 33.62229 -87.31375 38412 ft 432 kts 259°
2026-04-21 16:03 33.61314 -87.38417 38410 ft 430 kts 266°
2026-04-21 16:03 33.60722 -87.45540 38410 ft 428 kts 266°
2026-04-21 16:04 33.60003 -87.52628 38410 ft 427 kts 265°
2026-04-21 16:04 33.59210 -87.59697 38409 ft 427 kts 264°
2026-04-21 16:05 33.58406 -87.66709 38399 ft 428 kts 264°
2026-04-21 16:05 33.57619 -87.73786 38397 ft 428 kts 265°
2026-04-21 16:06 33.56829 -87.80861 38395 ft 428 kts 264°
2026-04-21 16:06 33.56018 -87.87941 38394 ft 428 kts 264°
2026-04-21 16:07 33.55197 -87.95023 38391 ft 428 kts 264°
2026-04-21 16:07 33.54371 -88.02103 38387 ft 428 kts 264°
2026-04-21 16:08 33.53125 -88.12709 38383 ft 428 kts 264°
2026-04-21 16:09 33.52320 -88.19774 38380 ft 428 kts 264°
2026-04-21 16:09 33.51478 -88.26841 38377 ft 428 kts 264°
2026-04-21 16:10 33.50625 -88.33900 38376 ft 428 kts 264°
2026-04-21 16:10 33.49774 -88.40913 38379 ft 428 kts 264°
2026-04-21 16:11 33.48911 -88.48014 38387 ft 428 kts 264°
2026-04-21 16:11 33.48322 -88.55063 38397 ft 428 kts 269°
2026-04-21 16:12 33.48266 -88.62194 38399 ft 428 kts 272°
2026-04-21 16:12 33.48313 -88.69310 38395 ft 427 kts 271°
2026-04-21 16:13 33.48295 -88.76426 38393 ft 427 kts 271°
2026-04-21 16:13 33.48246 -88.83538 38392 ft 427 kts 270°
2026-04-21 16:14 33.48182 -88.90650 38393 ft 427 kts 270°
2026-04-21 16:14 33.48149 -88.97765 38395 ft 427 kts 271°
2026-04-21 16:15 33.48111 -89.04877 38396 ft 427 kts 270°
2026-04-21 16:15 33.48053 -89.11959 38393 ft 427 kts 270°
2026-04-21 16:16 33.47985 -89.19088 38394 ft 428 kts 270°
2026-04-21 16:16 33.47911 -89.26208 38394 ft 428 kts 270°
2026-04-21 16:17 33.47832 -89.33337 38393 ft 427 kts 270°
2026-04-21 16:17 33.47748 -89.40454 38392 ft 428 kts 270°
2026-04-21 16:18 33.47661 -89.47585 38390 ft 428 kts 270°
2026-04-21 16:18 33.47569 -89.54718 38389 ft 428 kts 270°
2026-04-21 16:19 33.47474 -89.61852 38389 ft 428 kts 270°
2026-04-21 16:19 33.47374 -89.68979 38387 ft 428 kts 269°
2026-04-21 16:20 33.47271 -89.76102 38385 ft 428 kts 269°
2026-04-21 16:20 33.47163 -89.83228 38383 ft 428 kts 269°
2026-04-21 16:21 33.47059 -89.90352 38382 ft 428 kts 270°
2026-04-21 16:21 33.46968 -89.97437 38381 ft 428 kts 269°
2026-04-21 16:22 33.46843 -90.04562 38380 ft 428 kts 269°
2026-04-21 16:22 33.46708 -90.11701 38380 ft 428 kts 269°
2026-04-21 16:23 33.46571 -90.18833 38379 ft 428 kts 269°
2026-04-21 16:23 33.46434 -90.25959 38378 ft 428 kts 269°
2026-04-21 16:24 33.46147 -90.33022 38376 ft 428 kts 266°
2026-04-21 16:24 33.45557 -90.40115 38373 ft 428 kts 265°
2026-04-21 16:25 33.44948 -90.47211 38369 ft 428 kts 265°
2026-04-21 16:25 33.44370 -90.54300 38366 ft 427 kts 265°
2026-04-21 16:26 33.43802 -90.61386 38363 ft 427 kts 265°
2026-04-21 16:26 33.43237 -90.68473 38364 ft 427 kts 265°
2026-04-21 16:27 33.42717 -90.75553 38363 ft 427 kts 265°
2026-04-21 16:27 33.42186 -90.82578 38359 ft 427 kts 265°
2026-04-21 16:28 33.41637 -90.89649 38361 ft 427 kts 265°
2026-04-21 16:28 33.41076 -90.96723 38359 ft 427 kts 265°
2026-04-21 16:29 33.40607 -91.02606 38361 ft 427 kts 265°
2026-04-21 16:29 33.39939 -91.10873 38361 ft 427 kts 265°
2026-04-21 16:30 33.39364 -91.17946 38362 ft 427 kts 265°
2026-04-21 16:30 33.38785 -91.25020 38363 ft 427 kts 265°
2026-04-21 16:31 33.38204 -91.32083 38364 ft 426 kts 265°
2026-04-21 16:31 33.37618 -91.39134 38365 ft 426 kts 265°
2026-04-21 16:32 33.37033 -91.46135 38366 ft 426 kts 265°
2026-04-21 16:32 33.36438 -91.53194 38367 ft 426 kts 265°
2026-04-21 16:33 33.35840 -91.60247 38368 ft 426 kts 265°
2026-04-21 16:33 33.35237 -91.67303 38368 ft 426 kts 265°
2026-04-21 16:34 33.34631 -91.74357 38369 ft 426 kts 264°
2026-04-21 16:34 33.34022 -91.81406 38368 ft 426 kts 264°
2026-04-21 16:35 33.33413 -91.88400 38368 ft 426 kts 264°
2026-04-21 16:35 33.32795 -91.95450 38367 ft 426 kts 264°
2026-04-21 16:36 33.32173 -92.02497 38366 ft 426 kts 264°
2026-04-21 16:36 33.31548 -92.09537 38365 ft 425 kts 264°
2026-04-21 16:37 33.30921 -92.16569 38365 ft 425 kts 264°
2026-04-21 16:37 33.30288 -92.23599 38363 ft 425 kts 264°
2026-04-21 16:38 33.29651 -92.30634 38361 ft 425 kts 264°
2026-04-21 16:38 33.29023 -92.37621 38360 ft 425 kts 264°
2026-04-21 16:39 33.28402 -92.44653 38359 ft 425 kts 264°
2026-04-21 16:39 33.27748 -92.51680 38359 ft 425 kts 264°
2026-04-21 16:40 33.27085 -92.58711 38359 ft 425 kts 264°
2026-04-21 16:40 33.26419 -92.65746 38359 ft 426 kts 264°
2026-04-21 16:41 33.25867 -92.71590 38360 ft 426 kts 264°
2026-04-21 16:41 33.24947 -92.79744 38360 ft 426 kts 261°
2026-04-21 16:42 33.23853 -92.86699 38359 ft 426 kts 260°
2026-04-21 16:42 33.22739 -92.93671 38358 ft 426 kts 260°
2026-04-21 16:43 33.21837 -92.99451 38354 ft 426 kts 260°
2026-04-21 16:43 33.20762 -93.06410 38348 ft 426 kts 260°
2026-04-21 16:44 33.19689 -93.13371 38343 ft 426 kts 260°
2026-04-21 16:44 33.18654 -93.20338 38341 ft 426 kts 261°
2026-04-21 16:45 33.17608 -93.27356 38340 ft 426 kts 261°
2026-04-21 16:45 33.16559 -93.34271 38341 ft 426 kts 260°
2026-04-21 16:46 33.15494 -93.41235 38344 ft 426 kts 260°
2026-04-21 16:46 33.14423 -93.48195 38346 ft 426 kts 260°
2026-04-21 16:47 33.13345 -93.55152 38347 ft 426 kts 260°
2026-04-21 16:47 33.12264 -93.62108 38351 ft 426 kts 260°
2026-04-21 16:48 33.11179 -93.69062 38358 ft 426 kts 260°
2026-04-21 16:48 33.10090 -93.76014 38360 ft 426 kts 260°
2026-04-21 16:49 33.08995 -93.82977 38366 ft 426 kts 260°
2026-04-21 16:49 33.07899 -93.89921 38374 ft 426 kts 260°
2026-04-21 16:50 33.06798 -93.96877 38379 ft 427 kts 260°
2026-04-21 16:50 33.05692 -94.03831 38381 ft 427 kts 260°
2026-04-21 16:51 33.04580 -94.10797 38385 ft 428 kts 260°
2026-04-21 16:51 33.03464 -94.17768 38388 ft 427 kts 260°
2026-04-21 16:52 33.02345 -94.24725 38388 ft 427 kts 260°
2026-04-21 16:52 33.01222 -94.31684 38386 ft 427 kts 260°
2026-04-21 16:53 33.00096 -94.38635 38381 ft 427 kts 259°
2026-04-21 16:53 32.98965 -94.45592 38376 ft 427 kts 259°
2026-04-21 16:54 32.97832 -94.52537 38370 ft 427 kts 259°
2026-04-21 16:54 32.96692 -94.59499 38365 ft 428 kts 259°
2026-04-21 16:55 32.95547 -94.66466 38361 ft 428 kts 259°
2026-04-21 16:55 32.94401 -94.73413 38357 ft 428 kts 259°
2026-04-21 16:56 32.93250 -94.80365 38354 ft 428 kts 259°
2026-04-21 16:56 32.92103 -94.87267 38353 ft 428 kts 259°
2026-04-21 16:57 32.90945 -94.94217 38352 ft 428 kts 259°
2026-04-21 16:57 32.89783 -95.01162 38351 ft 428 kts 259°
2026-04-21 16:58 32.88616 -95.08111 38350 ft 428 kts 259°
2026-04-21 16:58 32.87446 -95.15051 38350 ft 428 kts 259°
2026-04-21 16:59 32.86271 -95.22000 38349 ft 428 kts 259°
2026-04-21 16:59 32.85092 -95.28950 38347 ft 428 kts 259°
2026-04-21 17:00 32.83909 -95.35896 38345 ft 428 kts 259°
2026-04-21 17:00 32.82924 -95.41657 38344 ft 427 kts 259°
2026-04-21 17:01 32.81559 -95.49714 38342 ft 428 kts 259°
2026-04-21 17:01 32.80382 -95.56643 38341 ft 428 kts 259°
2026-04-21 17:02 32.79178 -95.63577 38342 ft 428 kts 259°
2026-04-21 17:02 32.77967 -95.70504 38344 ft 428 kts 259°
2026-04-21 17:03 32.76755 -95.77430 38345 ft 428 kts 259°
2026-04-21 17:03 32.75658 -95.84372 38345 ft 427 kts 264°
2026-04-21 17:04 32.75434 -95.91415 38344 ft 427 kts 270°
2026-04-21 17:04 32.75644 -95.98472 38344 ft 427 kts 271°
2026-04-21 17:05 32.75885 -96.05491 38343 ft 429 kts 271°
2026-04-21 17:05 32.76067 -96.12588 38340 ft 430 kts 270°
2026-04-21 17:06 32.76219 -96.19691 38340 ft 430 kts 270°
2026-04-21 17:06 32.76366 -96.26789 38346 ft 429 kts 271°
2026-04-21 17:07 32.76521 -96.32741 38348 ft 430 kts 270°
2026-04-21 17:07 32.76708 -96.41018 38345 ft 431 kts 270°
2026-04-21 17:08 32.76850 -96.48090 38341 ft 430 kts 270°
2026-04-21 17:08 32.76984 -96.55197 38340 ft 431 kts 270°
2026-04-21 17:09 32.77177 -96.65887 38335 ft 431 kts 270°
2026-04-21 17:09 32.77299 -96.72984 38328 ft 432 kts 270°
2026-04-21 17:10 32.77417 -96.80119 38323 ft 432 kts 270°
2026-04-21 17:10 32.77532 -96.87256 38317 ft 432 kts 270°
2026-04-21 17:11 32.77643 -96.94409 38315 ft 433 kts 270°
2026-04-21 17:11 32.77748 -97.01531 38315 ft 433 kts 270°
2026-04-21 17:12 32.77851 -97.08684 38315 ft 433 kts 270°
2026-04-21 17:12 32.77950 -97.15841 38304 ft 433 kts 270°
2026-04-21 17:13 32.78044 -97.23011 38286 ft 433 kts 270°
2026-04-21 17:13 32.78135 -97.30185 38270 ft 434 kts 270°
2026-04-21 17:14 32.78221 -97.37357 38254 ft 434 kts 270°
2026-04-21 17:14 32.78303 -97.44526 38269 ft 434 kts 270°
2026-04-21 17:15 32.78381 -97.51654 38267 ft 434 kts 270°
2026-04-21 17:15 32.78455 -97.58838 38265 ft 434 kts 270°
2026-04-21 17:16 32.78525 -97.66008 38267 ft 434 kts 270°
2026-04-21 17:16 32.78591 -97.73188 38270 ft 434 kts 270°
2026-04-21 17:17 32.78653 -97.80361 38263 ft 434 kts 270°
2026-04-21 17:17 32.78711 -97.87536 38259 ft 434 kts 270°
2026-04-21 17:18 32.78764 -97.94666 38254 ft 434 kts 270°
2026-04-21 17:18 32.78814 -98.01838 38251 ft 434 kts 270°
2026-04-21 17:19 32.78859 -98.09011 38250 ft 434 kts 270°
2026-04-21 17:19 32.78901 -98.16184 38252 ft 434 kts 270°
2026-04-21 17:20 32.78939 -98.23365 38252 ft 435 kts 270°
2026-04-21 17:20 32.78972 -98.30550 38252 ft 435 kts 270°
2026-04-21 17:21 32.79001 -98.37729 38252 ft 435 kts 270°
2026-04-21 17:21 32.79026 -98.44866 38253 ft 435 kts 270°
2026-04-21 17:22 32.79047 -98.52105 38253 ft 434 kts 270°
2026-04-21 17:22 32.79064 -98.59289 38252 ft 435 kts 270°
2026-04-21 17:23 32.79075 -98.65269 38253 ft 435 kts 270°
2026-04-21 17:23 32.79086 -98.73640 38256 ft 435 kts 270°
2026-04-21 17:24 32.79091 -98.80837 38258 ft 435 kts 270°
2026-04-21 17:24 32.79091 -98.86831 38260 ft 435 kts 270°
2026-04-21 17:25 32.79089 -98.94028 38260 ft 435 kts 270°
2026-04-21 17:25 32.79109 -99.01207 38259 ft 434 kts 270°
2026-04-21 17:26 32.79100 -99.08367 38258 ft 432 kts 269°
2026-04-21 17:26 32.79075 -99.15519 38255 ft 432 kts 270°
2026-04-21 17:27 32.79047 -99.22660 38254 ft 432 kts 270°
2026-04-21 17:27 32.79017 -99.29811 38252 ft 433 kts 270°
2026-04-21 17:28 32.78865 -99.36914 38251 ft 433 kts 266°
2026-04-21 17:28 32.78235 -99.44032 38250 ft 433 kts 263°
2026-04-21 17:29 32.77459 -99.51125 38249 ft 433 kts 263°
2026-04-21 17:29 32.76726 -99.58216 38249 ft 432 kts 264°
2026-04-21 17:30 32.76017 -99.65301 38249 ft 431 kts 264°
2026-04-21 17:30 32.75317 -99.72370 38238 ft 431 kts 264°
2026-04-21 17:31 32.74653 -99.79448 38234 ft 430 kts 264°
2026-04-21 17:31 32.73997 -99.86513 38228 ft 431 kts 264°
2026-04-21 17:32 32.73323 -99.93576 38227 ft 430 kts 264°
2026-04-21 17:32 32.72639 -100.00631 38229 ft 430 kts 264°
2026-04-21 17:33 32.71949 -100.07682 38233 ft 430 kts 264°
2026-04-21 17:33 32.71253 -100.14741 38236 ft 431 kts 264°
2026-04-21 17:34 32.70550 -100.21820 38239 ft 431 kts 264°
2026-04-21 17:34 32.69844 -100.28891 38241 ft 431 kts 264°
2026-04-21 17:35 32.69134 -100.35958 38242 ft 432 kts 264°
2026-04-21 17:35 32.68423 -100.42992 38243 ft 432 kts 264°
2026-04-21 17:36 32.67702 -100.50083 38244 ft 432 kts 264°
2026-04-21 17:36 32.66979 -100.57157 38244 ft 432 kts 264°
2026-04-21 17:37 32.66251 -100.64240 38241 ft 433 kts 264°
2026-04-21 17:37 32.65517 -100.71332 38238 ft 433 kts 264°
2026-04-21 17:38 32.64781 -100.78430 38234 ft 433 kts 264°
2026-04-21 17:38 32.64038 -100.85527 38232 ft 434 kts 264°
2026-04-21 17:39 32.63296 -100.92584 38231 ft 434 kts 264°
2026-04-21 17:39 32.62545 -100.99688 38230 ft 434 kts 264°
2026-04-21 17:40 32.61789 -101.06804 38230 ft 435 kts 264°
2026-04-21 17:40 32.61028 -101.13916 38230 ft 435 kts 264°
2026-04-21 17:41 32.60264 -101.21032 38230 ft 435 kts 264°
2026-04-21 17:41 32.59495 -101.28150 38229 ft 435 kts 264°
2026-04-21 17:42 32.58722 -101.35266 38229 ft 435 kts 264°
2026-04-21 17:42 32.57945 -101.42382 38228 ft 435 kts 264°
2026-04-21 17:43 32.57170 -101.49445 38228 ft 434 kts 264°
2026-04-21 17:43 32.56387 -101.56541 38226 ft 434 kts 264°
2026-04-21 17:44 32.55600 -101.63635 38225 ft 434 kts 264°
2026-04-21 17:44 32.54809 -101.70730 38226 ft 433 kts 264°
2026-04-21 17:45 32.54015 -101.77808 38226 ft 433 kts 264°
2026-04-21 17:45 32.53222 -101.84848 38227 ft 433 kts 264°
2026-04-21 17:46 32.52422 -101.91915 38227 ft 433 kts 264°
2026-04-21 17:46 32.51612 -101.99029 38229 ft 433 kts 264°
2026-04-21 17:47 32.50804 -102.06097 38230 ft 433 kts 264°
2026-04-21 17:47 32.49989 -102.13181 38230 ft 434 kts 264°
2026-04-21 17:48 32.49170 -102.20266 38229 ft 434 kts 264°
2026-04-21 17:48 32.48348 -102.27347 38229 ft 434 kts 264°
2026-04-21 17:49 32.47527 -102.34381 38228 ft 434 kts 264°
2026-04-21 17:49 32.46695 -102.41467 38227 ft 434 kts 264°
2026-04-21 17:50 32.45860 -102.48551 38226 ft 435 kts 264°
2026-04-21 17:50 32.45019 -102.55643 38225 ft 435 kts 264°
2026-04-21 17:51 32.44174 -102.62742 38226 ft 436 kts 263°
2026-04-21 17:51 32.43324 -102.69846 38227 ft 436 kts 263°
2026-04-21 17:52 32.42470 -102.76953 38226 ft 436 kts 263°
2026-04-21 17:52 32.41611 -102.84064 38225 ft 437 kts 263°
2026-04-21 17:53 32.40746 -102.91187 38222 ft 437 kts 263°
2026-04-21 17:53 32.39877 -102.98309 38220 ft 437 kts 263°
2026-04-21 17:54 32.39004 -103.05432 38216 ft 438 kts 263°
2026-04-21 17:54 32.38127 -103.12559 38214 ft 438 kts 263°
2026-04-21 17:55 32.37244 -103.19694 38212 ft 438 kts 263°
2026-04-21 17:55 32.36362 -103.26786 38202 ft 438 kts 263°
2026-04-21 17:56 32.35471 -103.33916 38201 ft 438 kts 263°
2026-04-21 17:56 32.34577 -103.41038 38188 ft 438 kts 263°
2026-04-21 17:57 32.33682 -103.48150 38188 ft 437 kts 262°
2026-04-21 17:57 32.32778 -103.55277 38184 ft 437 kts 262°
2026-04-21 17:58 32.31873 -103.62386 38186 ft 437 kts 262°
2026-04-21 17:58 32.30964 -103.69495 38187 ft 437 kts 262°
2026-04-21 17:59 32.30059 -103.76543 38188 ft 436 kts 262°
2026-04-21 17:59 32.29139 -103.83673 38189 ft 436 kts 262°
2026-04-21 18:00 32.28221 -103.90764 38190 ft 436 kts 262°
2026-04-21 18:00 32.27304 -103.97801 38190 ft 436 kts 262°
2026-04-21 18:01 32.26379 -104.04880 38190 ft 436 kts 262°
2026-04-21 18:01 32.25447 -104.11967 38190 ft 436 kts 262°
2026-04-21 18:02 32.24513 -104.19046 38190 ft 436 kts 262°
2026-04-21 18:02 32.23575 -104.26126 38190 ft 436 kts 262°
2026-04-21 18:03 32.22632 -104.33212 38190 ft 436 kts 262°
2026-04-21 18:03 32.21691 -104.40248 38190 ft 437 kts 262°
2026-04-21 18:04 32.20740 -104.47335 38190 ft 437 kts 262°
2026-04-21 18:04 32.19783 -104.54432 38194 ft 438 kts 262°
2026-04-21 18:05 32.18822 -104.61531 38198 ft 438 kts 262°
2026-04-21 18:05 32.17855 -104.68634 38200 ft 439 kts 262°
2026-04-21 18:06 32.16883 -104.75751 38200 ft 439 kts 261°
2026-04-21 18:06 32.16070 -104.81673 38178 ft 440 kts 261°
2026-04-21 18:07 32.15089 -104.88797 38178 ft 440 kts 261°
2026-04-21 18:07 32.14103 -104.95930 38181 ft 440 kts 261°
2026-04-21 18:08 32.13113 -105.03056 38184 ft 440 kts 261°
2026-04-21 18:08 32.12120 -105.10185 38186 ft 440 kts 261°
2026-04-21 18:09 32.11121 -105.17314 38188 ft 441 kts 261°
2026-04-21 18:09 32.10117 -105.24452 38189 ft 441 kts 261°
2026-04-21 18:10 32.09109 -105.31583 38190 ft 441 kts 261°
2026-04-21 18:10 32.08105 -105.38663 38191 ft 440 kts 260°
2026-04-21 18:11 32.07094 -105.45768 38191 ft 439 kts 260°
2026-04-21 18:11 32.06079 -105.52863 38191 ft 439 kts 260°
2026-04-21 18:12 32.05061 -105.59954 38190 ft 438 kts 260°
2026-04-21 18:12 32.04039 -105.67043 38195 ft 438 kts 260°
2026-04-21 18:13 32.03014 -105.74123 38204 ft 438 kts 260°
2026-04-21 18:13 32.01984 -105.81207 38215 ft 438 kts 259°
2026-04-21 18:14 32.00446 -105.91817 38216 ft 438 kts 260°
2026-04-21 18:15 31.99427 -105.98889 38213 ft 438 kts 259°
2026-04-21 18:15 31.98386 -106.05905 38210 ft 437 kts 259°
2026-04-21 18:16 31.97325 -106.13007 38206 ft 437 kts 259°
2026-04-21 18:16 31.96274 -106.20027 38196 ft 439 kts 259°
2026-04-21 18:17 31.95429 -106.27178 38195 ft 444 kts 268°
2026-04-21 18:17 31.95872 -106.34474 38199 ft 448 kts 276°
2026-04-21 18:18 31.96788 -106.41738 38200 ft 448 kts 277°
2026-04-21 18:18 31.97686 -106.48994 38201 ft 448 kts 276°
2026-04-21 18:19 31.98538 -106.56249 38202 ft 447 kts 276°
2026-04-21 18:19 31.99371 -106.63517 38202 ft 447 kts 276°
2026-04-21 18:20 32.00223 -106.70833 38202 ft 447 kts 276°
2026-04-21 18:20 32.01086 -106.78114 38204 ft 450 kts 276°
2026-04-21 18:21 32.01932 -106.85440 38207 ft 452 kts 276°
2026-04-21 18:21 32.02768 -106.92782 38210 ft 452 kts 276°
2026-04-21 18:22 32.03598 -107.00143 38211 ft 452 kts 276°
2026-04-21 18:22 32.04417 -107.07461 38213 ft 452 kts 276°
2026-04-21 18:23 32.05235 -107.14812 38213 ft 452 kts 276°
2026-04-21 18:23 32.06050 -107.22176 38213 ft 452 kts 275°
2026-04-21 18:24 32.06860 -107.29524 38213 ft 452 kts 275°
2026-04-21 18:24 32.07665 -107.36882 38212 ft 452 kts 275°
2026-04-21 18:25 32.08468 -107.44249 38212 ft 452 kts 275°
2026-04-21 18:25 32.09264 -107.51606 38211 ft 452 kts 275°
2026-04-21 18:26 32.10052 -107.58921 38211 ft 452 kts 275°
2026-04-21 18:26 32.10841 -107.66286 38209 ft 452 kts 275°
2026-04-21 18:27 32.11625 -107.73646 38211 ft 452 kts 275°
2026-04-21 18:27 32.12405 -107.81009 38212 ft 452 kts 275°
2026-04-21 18:28 32.13180 -107.88364 38213 ft 451 kts 275°
2026-04-21 18:28 32.13950 -107.95714 38215 ft 451 kts 275°
2026-04-21 18:29 32.14715 -108.03061 38218 ft 451 kts 275°
2026-04-21 18:29 32.15471 -108.10361 38221 ft 451 kts 275°
2026-04-21 18:30 32.16228 -108.17714 38218 ft 451 kts 275°
2026-04-21 18:30 32.16982 -108.25074 38231 ft 452 kts 275°
2026-04-21 18:31 32.17731 -108.32441 38230 ft 452 kts 275°
2026-04-21 18:31 32.18477 -108.39814 38228 ft 452 kts 275°
2026-04-21 18:32 32.19219 -108.47191 38226 ft 452 kts 275°
2026-04-21 18:32 32.19958 -108.54584 38223 ft 453 kts 275°
2026-04-21 18:33 32.20692 -108.61967 38222 ft 453 kts 275°
2026-04-21 18:33 32.21422 -108.69355 38221 ft 453 kts 275°
2026-04-21 18:34 32.22148 -108.76749 38219 ft 453 kts 275°
2026-04-21 18:34 32.22865 -108.84099 38218 ft 453 kts 275°
2026-04-21 18:35 32.23477 -108.90300 38217 ft 453 kts 275°
2026-04-21 18:35 32.24327 -108.98905 38214 ft 453 kts 275°
2026-04-21 18:36 32.25028 -109.06314 38210 ft 453 kts 275°
2026-04-21 18:36 32.25723 -109.13717 38201 ft 453 kts 275°
2026-04-21 18:37 32.26415 -109.21116 38196 ft 453 kts 275°
2026-04-21 18:37 32.27683 -109.28397 38195 ft 455 kts 287°
2026-04-21 18:38 32.29953 -109.35389 38193 ft 456 kts 291°
2026-04-21 18:38 32.32411 -109.42250 38192 ft 456 kts 291°
2026-04-21 18:39 32.34848 -109.49174 38193 ft 456 kts 290°
2026-04-21 18:39 32.37262 -109.56110 38194 ft 456 kts 290°
2026-04-21 18:40 32.39661 -109.63042 38195 ft 455 kts 290°
2026-04-21 18:40 32.41678 -109.68787 38196 ft 455 kts 291°
2026-04-21 18:41 32.44507 -109.76872 38197 ft 454 kts 290°
2026-04-21 18:41 32.46906 -109.83793 38197 ft 455 kts 290°
2026-04-21 18:42 32.49303 -109.90731 38196 ft 455 kts 290°
2026-04-21 18:42 32.51674 -109.97625 38189 ft 455 kts 290°
2026-04-21 18:43 32.54059 -110.04574 38188 ft 455 kts 290°
2026-04-21 18:43 32.56440 -110.11526 38186 ft 454 kts 290°
2026-04-21 18:44 32.58814 -110.18472 38186 ft 454 kts 290°
2026-04-21 18:44 32.61179 -110.25409 38188 ft 454 kts 290°
2026-04-21 18:45 32.63529 -110.32316 38192 ft 454 kts 290°
2026-04-21 18:45 32.65891 -110.39271 38197 ft 454 kts 290°
2026-04-21 18:46 32.68249 -110.46233 38201 ft 455 kts 290°
2026-04-21 18:46 32.70609 -110.53211 38197 ft 455 kts 290°
2026-04-21 18:47 32.72947 -110.60141 38196 ft 455 kts 290°
2026-04-21 18:47 32.75295 -110.67118 38194 ft 454 kts 290°
2026-04-21 18:48 32.77246 -110.72925 38188 ft 454 kts 290°
2026-04-21 18:48 32.79583 -110.79894 38173 ft 454 kts 290°
2026-04-21 18:49 32.81915 -110.86868 38155 ft 453 kts 290°
2026-04-21 18:49 32.83846 -110.92650 38139 ft 453 kts 290°
2026-04-21 18:50 32.86558 -111.00790 38120 ft 453 kts 290°
2026-04-21 18:50 32.88873 -111.07757 38103 ft 453 kts 290°
2026-04-21 18:51 32.91184 -111.14724 38086 ft 453 kts 290°
2026-04-21 18:51 32.93489 -111.21690 38072 ft 452 kts 290°
2026-04-21 18:52 32.95774 -111.28609 38054 ft 451 kts 290°
2026-04-21 18:52 32.98066 -111.35567 38052 ft 451 kts 290°
2026-04-21 18:53 33.00355 -111.42528 38052 ft 451 kts 290°
2026-04-21 18:53 33.02642 -111.49501 38054 ft 451 kts 290°
2026-04-21 18:54 33.04923 -111.56471 38058 ft 450 kts 290°
2026-04-21 18:54 33.07193 -111.63424 38063 ft 450 kts 290°
2026-04-21 18:55 33.09079 -111.69209 38064 ft 450 kts 289°
2026-04-21 18:55 33.11709 -111.77297 38065 ft 450 kts 289°
2026-04-21 18:56 33.13648 -111.83273 38063 ft 450 kts 289°
2026-04-21 18:56 33.15906 -111.90250 38055 ft 451 kts 289°
2026-04-21 18:57 33.18176 -111.97276 38049 ft 450 kts 289°
2026-04-21 18:57 33.20424 -112.04250 38049 ft 448 kts 289°
2026-04-21 18:58 33.22654 -112.11179 38046 ft 446 kts 289°
2026-04-21 18:58 33.24860 -112.18057 38042 ft 446 kts 289°
2026-04-21 18:59 33.27077 -112.24984 38038 ft 446 kts 289°
2026-04-21 18:59 33.29293 -112.31921 38032 ft 447 kts 289°
2026-04-21 19:00 33.31507 -112.38866 38032 ft 447 kts 289°
2026-04-21 19:00 33.33714 -112.45807 38035 ft 446 kts 289°
2026-04-21 19:01 33.35945 -112.52741 38039 ft 446 kts 289°
2026-04-21 19:01 33.38125 -112.59633 38045 ft 445 kts 289°
2026-04-21 19:02 33.40307 -112.66577 38049 ft 445 kts 289°
2026-04-21 19:02 33.42482 -112.73511 38050 ft 445 kts 289°
2026-04-21 19:03 33.44659 -112.80450 38049 ft 445 kts 289°
2026-04-21 19:03 33.46915 -112.87337 38048 ft 444 kts 291°
2026-04-21 19:04 33.49403 -112.94114 38046 ft 443 kts 292°
2026-04-21 19:04 33.51864 -113.00885 38044 ft 443 kts 291°
2026-04-21 19:05 33.54291 -113.07664 38043 ft 442 kts 291°
2026-04-21 19:05 33.56692 -113.14408 38048 ft 442 kts 291°
2026-04-21 19:06 33.59103 -113.21190 38047 ft 442 kts 291°
2026-04-21 19:06 33.61544 -113.27954 38037 ft 441 kts 291°
2026-04-21 19:07 33.63958 -113.34722 38028 ft 440 kts 291°
2026-04-21 19:07 33.66356 -113.41490 38025 ft 440 kts 291°
2026-04-21 19:08 33.68764 -113.48239 38023 ft 439 kts 291°
2026-04-21 19:08 33.71154 -113.54993 38032 ft 439 kts 291°
2026-04-21 19:09 33.73525 -113.61758 38028 ft 439 kts 291°
2026-04-21 19:09 33.75892 -113.68531 38024 ft 439 kts 291°
2026-04-21 19:10 33.78253 -113.75295 38019 ft 439 kts 291°
2026-04-21 19:10 33.80596 -113.82017 38015 ft 438 kts 291°
2026-04-21 19:11 33.82911 -113.88811 38011 ft 438 kts 290°
2026-04-21 19:11 33.85201 -113.95612 38002 ft 438 kts 290°
2026-04-21 19:12 33.87098 -114.01261 37994 ft 438 kts 290°
2026-04-21 19:12 33.89747 -114.09152 37991 ft 437 kts 290°
2026-04-21 19:13 33.91532 -114.16180 37990 ft 436 kts 282°
2026-04-21 19:13 33.92694 -114.23299 37989 ft 436 kts 279°
2026-04-21 19:14 33.93778 -114.30488 37987 ft 436 kts 280°
2026-04-21 19:14 33.94942 -114.37656 37986 ft 436 kts 280°
2026-04-21 19:15 33.96128 -114.44811 37978 ft 435 kts 280°
2026-04-21 19:15 33.97317 -114.51955 37978 ft 435 kts 280°
2026-04-21 19:16 33.98544 -114.59092 37978 ft 435 kts 280°
2026-04-21 19:16 33.99760 -114.66229 37984 ft 434 kts 280°
2026-04-21 19:17 34.01549 -114.76909 37985 ft 433 kts 279°
2026-04-21 19:17 34.02711 -114.84015 37987 ft 432 kts 279°
2026-04-21 19:18 34.03868 -114.91116 37988 ft 431 kts 279°
2026-04-21 19:18 34.05014 -114.98153 37991 ft 430 kts 279°
2026-04-21 19:19 34.06164 -115.05222 37994 ft 429 kts 278°
2026-04-21 19:19 34.07308 -115.12284 37998 ft 428 kts 278°
2026-04-21 19:20 34.08441 -115.19330 38002 ft 427 kts 278°
2026-04-21 19:20 34.09568 -115.26359 38009 ft 426 kts 278°
2026-04-21 19:21 34.10716 -115.33375 38016 ft 426 kts 278°
2026-04-21 19:21 34.11874 -115.40371 38022 ft 425 kts 278°
2026-04-21 19:22 34.12982 -115.47333 38028 ft 424 kts 278°
2026-04-21 19:22 34.14083 -115.54317 38035 ft 423 kts 277°
2026-04-21 19:23 34.15182 -115.61305 38042 ft 423 kts 277°
2026-04-21 19:23 34.16124 -115.68285 38047 ft 419 kts 271°
2026-04-21 19:24 34.15904 -115.75309 38055 ft 418 kts 262°
2026-04-21 19:24 34.15143 -115.82271 38062 ft 418 kts 262°
2026-04-21 19:25 34.14438 -115.89189 38067 ft 418 kts 262°
2026-04-21 19:25 34.13752 -115.96163 37448 ft 421 kts 262°
2026-04-21 19:26 34.13408 -115.99667 36774 ft 420 kts 262°
2026-04-21 19:26 34.13079 -116.03169 36073 ft 420 kts 262°
2026-04-21 19:26 34.12744 -116.06659 35414 ft 418 kts 262°
2026-04-21 19:26 34.12508 -116.09056 34951 ft 417 kts 262°
2026-04-21 19:27 34.12163 -116.12529 34380 ft 414 kts 262°
2026-04-21 19:27 34.11708 -116.17072 33670 ft 409 kts 261°
2026-04-21 19:27 34.11368 -116.20471 33132 ft 406 kts 261°
2026-04-21 19:27 34.11029 -116.23840 32588 ft 403 kts 261°
2026-04-21 19:28 34.10695 -116.27181 32051 ft 400 kts 261°
2026-04-21 19:28 34.10474 -116.29382 31691 ft 398 kts 260°
2026-04-21 19:28 34.10138 -116.32694 31143 ft 396 kts 260°
2026-04-21 19:28 34.09794 -116.35988 30613 ft 394 kts 259°
2026-04-21 19:29 34.09442 -116.39269 30080 ft 392 kts 259°
2026-04-21 19:29 34.09090 -116.42526 29538 ft 390 kts 258°
2026-04-21 19:29 34.08738 -116.45765 28985 ft 389 kts 258°
2026-04-21 19:29 34.08387 -116.48987 28448 ft 387 kts 258°
2026-04-21 19:30 34.08037 -116.52203 27908 ft 384 kts 258°
2026-04-21 19:30 34.07691 -116.55389 27413 ft 381 kts 258°
2026-04-21 19:30 34.07352 -116.58504 27304 ft 368 kts 258°
2026-04-21 19:30 34.07042 -116.61535 27017 ft 362 kts 259°
2026-04-21 19:31 34.06779 -116.64562 26415 ft 366 kts 259°
2026-04-21 19:31 34.06508 -116.67669 25916 ft 377 kts 259°
2026-04-21 19:31 34.06219 -116.70825 25419 ft 376 kts 259°
2026-04-21 19:31 34.05927 -116.73942 24925 ft 373 kts 258°
2026-04-21 19:32 34.05634 -116.77040 24434 ft 370 kts 258°
2026-04-21 19:32 34.05342 -116.80113 23944 ft 367 kts 258°
2026-04-21 19:32 34.05054 -116.83157 23465 ft 365 kts 258°
2026-04-21 19:32 34.04766 -116.86188 22979 ft 363 kts 258°
2026-04-21 19:33 34.04481 -116.89198 22499 ft 360 kts 258°
2026-04-21 19:33 34.04148 -116.92169 22028 ft 356 kts 256°
2026-04-21 19:33 34.03743 -116.95092 21557 ft 352 kts 255°
2026-04-21 19:33 34.03339 -116.97993 21094 ft 350 kts 256°
2026-04-21 19:34 34.02956 -117.00882 20630 ft 347 kts 256°
2026-04-21 19:34 34.02588 -117.03704 20176 ft 344 kts 256°
2026-04-21 19:34 34.02239 -117.06586 19717 ft 342 kts 257°
2026-04-21 19:34 34.01920 -117.09417 19263 ft 340 kts 257°
2026-04-21 19:35 34.01592 -117.12234 18808 ft 337 kts 256°
2026-04-21 19:35 34.00927 -117.17789 17892 ft 333 kts 256°
2026-04-21 19:35 34.00595 -117.20561 17330 ft 334 kts 256°
2026-04-21 19:36 34.00265 -117.23320 16876 ft 332 kts 256°
2026-04-21 19:36 33.99938 -117.26066 16415 ft 330 kts 256°
2026-04-21 19:36 33.99610 -117.28792 15957 ft 328 kts 257°
2026-04-21 19:36 33.99283 -117.31506 15492 ft 326 kts 257°
2026-04-21 19:37 33.98972 -117.34206 15021 ft 324 kts 257°
2026-04-21 19:37 33.98661 -117.36888 14560 ft 323 kts 257°
2026-04-21 19:37 33.98346 -117.39558 14090 ft 321 kts 257°
2026-04-21 19:37 33.98029 -117.42220 13628 ft 319 kts 257°
2026-04-21 19:38 33.97715 -117.44865 13159 ft 318 kts 257°
2026-04-21 19:38 33.97467 -117.47493 12877 ft 311 kts 261°
2026-04-21 19:38 33.97495 -117.50067 12688 ft 306 kts 268°
2026-04-21 19:38 33.97785 -117.52535 12283 ft 307 kts 274°
2026-04-21 19:39 33.98243 -117.55041 11849 ft 310 kts 277°
2026-04-21 19:39 33.98757 -117.57558 11413 ft 310 kts 277°
2026-04-21 19:39 33.99228 -117.59997 10983 ft 308 kts 276°
2026-04-21 19:39 33.99674 -117.62506 10554 ft 305 kts 276°
2026-04-21 19:40 34.00107 -117.65004 10220 ft 299 kts 277°
2026-04-21 19:40 34.00489 -117.67376 10155 ft 284 kts 275°
2026-04-21 19:40 34.00651 -117.69674 10088 ft 267 kts 265°
2026-04-21 19:40 34.00527 -117.71874 9942 ft 262 kts 260°
2026-04-21 19:41 34.00272 -117.74053 9597 ft 262 kts 257°
2026-04-21 19:41 33.99922 -117.76193 9253 ft 260 kts 257°
2026-04-21 19:41 33.99669 -117.78287 8928 ft 259 kts 260°
2026-04-21 19:41 33.99463 -117.80446 8599 ft 261 kts 262°
2026-04-21 19:42 33.99302 -117.82543 8280 ft 261 kts 262°
2026-04-21 19:42 33.99123 -117.84611 7968 ft 260 kts 261°
2026-04-21 19:42 33.98898 -117.86868 7629 ft 258 kts 261°
2026-04-21 19:42 33.98674 -117.89015 7299 ft 258 kts 261°
2026-04-21 19:43 33.98451 -117.91161 6981 ft 258 kts 261°
2026-04-21 19:43 33.98246 -117.93311 6659 ft 258 kts 261°
2026-04-21 19:43 33.98038 -117.95453 6339 ft 257 kts 261°
2026-04-21 19:43 33.97828 -117.97596 6019 ft 257 kts 261°
2026-04-21 19:44 33.97616 -117.99730 5702 ft 257 kts 261°
2026-04-21 19:44 33.97404 -118.01864 5386 ft 256 kts 261°
2026-04-21 19:44 33.97192 -118.03986 5134 ft 254 kts 261°
2026-04-21 19:44 33.96984 -118.06068 5061 ft 244 kts 261°
2026-04-21 19:45 33.96788 -118.08057 4933 ft 236 kts 262°
2026-04-21 19:45 33.96611 -118.09992 4645 ft 235 kts 262°
2026-04-21 19:45 33.96421 -118.11966 4383 ft 233 kts 261°
2026-04-21 19:45 33.96228 -118.13905 4025 ft 234 kts 261°
2026-04-21 19:46 33.96031 -118.15829 3711 ft 225 kts 261°
2026-04-21 19:46 33.95848 -118.17629 3497 ft 217 kts 261°
2026-04-21 19:46 33.95664 -118.19442 3190 ft 217 kts 261°
2026-04-21 19:46 33.95482 -118.21214 3107 ft 204 kts 261°
2026-04-21 19:47 33.95316 -118.22839 3036 ft 193 kts 261°
2026-04-21 19:47 33.95152 -118.24424 2917 ft 195 kts 261°
2026-04-21 19:47 33.94974 -118.26042 2871 ft 184 kts 261°
2026-04-21 19:47 33.94775 -118.27657 2294 ft 208 kts 259°
2026-04-21 19:48 33.94518 -118.29487 1558 ft 231 kts 259°
2026-04-21 19:48 33.94350 -118.31358 1265 ft 216 kts 265°
2026-04-21 19:48 33.94268 -118.33077 995 ft 195 kts 263°
2026-04-21 19:48 33.94117 -118.34599 736 ft 171 kts 261°
2026-04-21 19:49 33.93977 -118.35932 522 ft 151 kts 262°
2026-04-21 19:49 33.93850 -118.37165 356 ft 146 kts 262°
2026-04-21 19:49 33.93728 -118.38363 209 ft 142 kts 263°
2026-04-21 19:49 33.93612 -118.39491 140 ft 122 kts 263°
2026-04-21 19:50 33.93551 -118.40097 140 ft 98 kts 263°
2026-04-21 19:50 33.93470 -118.40919 140 ft 41 kts 265°
2026-04-21 19:50 33.93472 -118.41022 140 ft 0 kts 298°
2026-04-21 19:50 33.93472 -118.41024 140 ft 2 kts 298°
2026-04-21 19:51 33.93495 -118.41073 140 ft 0 kts 299°
2026-04-21 19:51 33.93527 -118.41150 140 ft 20 kts 292°
2026-04-21 19:51 33.93590 -118.41259 140 ft 8 kts 328°
2026-04-21 19:51 33.93667 -118.41282 140 ft 12 kts 350°
2026-04-21 19:52 33.93738 -118.41254 140 ft 19 kts 60°
2026-04-21 19:52 33.93770 -118.41052 140 ft 26 kts 84°
2026-04-21 19:52 33.93788 -118.40879 140 ft 16 kts 82°
2026-04-21 19:52 33.93805 -118.40795 140 ft 5 kts 52°
2026-04-21 19:53 33.93840 -118.40751 140 ft 10 kts 42°
2026-04-21 19:53 33.93889 -118.40667 140 ft 15 kts 77°
2026-04-21 19:53 33.93908 -118.40522 140 ft 20 kts 84°
2026-04-21 19:53 33.93924 -118.40334 140 ft 24 kts 83°
2026-04-21 19:54 33.93944 -118.40148 140 ft 21 kts 83°
2026-04-21 19:54 33.93961 -118.39979 140 ft 20 kts 83°
2026-04-21 19:54 33.93978 -118.39862 140 ft 7 kts 50°
2026-04-21 19:54 33.94021 -118.39844 140 ft 6 kts
2026-04-21 19:55 33.94064 -118.39837 140 ft 6 kts
2026-04-21 19:55 33.94087 -118.39837 140 ft 2 kts 357°
2026-04-21 19:55 33.94098 -118.39838 140 ft 2 kts 355°
2026-04-21 19:55 33.94131 -118.39842 140 ft 8 kts 354°
2026-04-21 19:56 33.94148 -118.39843 140 ft 2 kts 354°
2026-04-21 19:56 33.94162 -118.39862 140 ft 5 kts 288°
2026-04-21 19:56 33.94163 -118.39899 140 ft 3 kts 263°
2026-04-21 19:56 33.94162 -118.39902 140 ft 0 kts 264°